Location: Chèvreville
(49.1099°N, 2.8495°E)
Time: 11:48:20
(UTC+00:00)

SO-50 - Visible Passes

Search period start: 05 December 2023 00:00
Search period end: 15 December 2023 00:00
Orbit: 601 x 670 km, 64.6° (Epoch: 04 December)

Date Brightness Start Highest point End Pass type
(mag) Time Alt. Az. Time Alt. Az. Time Alt. Az.
05 Dec ? 03:19:06 10° NE 03:19:06 10° NE 03:19:11 10° NE visible
05 Dec ? 04:56:36 27° N 04:56:36 27° N 04:59:23 10° NNE visible
05 Dec ? 06:34:21 10° NW 06:36:46 14° NNW 06:39:10 10° NNE visible
06 Dec ? 03:41:22 13° NE 03:41:22 13° NE 03:41:52 10° NE visible
06 Dec ? 05:18:51 21° NNW 05:18:51 21° NNW 05:21:45 10° NNE visible
07 Dec ? 04:03:34 15° NNE 04:03:34 15° NNE 04:04:21 10° NNE visible
07 Dec ? 05:41:03 16° NNW 05:41:15 16° NNW 05:44:06 10° NNE visible
08 Dec ? 04:25:42 15° NNE 04:25:42 15° NNE 04:26:44 10° NNE visible
08 Dec ? 06:03:11 12° NNW 06:04:30 13° N 06:06:35 10° NNE visible
09 Dec ? 04:47:47 15° N 04:47:47 15° N 04:49:04 10° NNE visible
09 Dec ? 06:26:07 10° NNW 06:27:49 12° N 06:29:29 10° NNE visible
10 Dec ? 05:09:50 14° N 05:09:50 14° N 05:11:27 10° NNE visible
10 Dec ? 06:49:09 10° NNW 06:51:08 12° N 06:53:05 10° NE visible
11 Dec ? 05:31:51 12° N 05:32:11 12° N 05:34:02 10° NNE visible
12 Dec ? 05:53:50 10° NNW 05:55:29 12° N 05:57:11 10° NNE visible
13 Dec ? 04:38:20 11° NNE 04:38:20 11° NNE 04:38:46 10° NNE visible
13 Dec ? 06:16:32 10° NNW 06:18:45 13° NNE 06:20:58 10° NE visible
14 Dec ? 05:00:17 12° N 05:00:17 12° N 05:01:30 10° NNE visible
14 Dec ? 06:38:56 10° NNW 06:41:57 17° NNE 06:44:55 10° ENE visible
